Stations météo

Publicité
Tholey, Allemagne (10706): Température de l'air & dewpoint: 15.07.2019 16:00:00 - 21.07.2019 16:00:00 (CEST)Tholey, Allemagne (10706): Température de l'air 5cm & Température de l'air -5cm: 15.07.2019 16:00:00 - 21.07.2019 16:00:00 (CEST)Tholey, Allemagne (10706): Température de l'air -20cm & Température de l'air -100cm: 15.07.2019 16:00:00 - 21.07.2019 16:00:00 (CEST)Tholey, Allemagne (10706): Vitesse du vent & gusts: 15.07.2019 16:00:00 - 21.07.2019 16:00:00 (CEST)Tholey, Allemagne (10706): Direction du vent: 15.07.2019 16:00:00 - 21.07.2019 16:00:00 (CEST)Tholey, Allemagne (10706): reduced air pressure: 15.07.2019 16:00:00 - 21.07.2019 16:00:00 (CEST)Tholey, Allemagne (10706): visibility: 15.07.2019 16:00:00 - 21.07.2019 16:00:00 (CEST)Tholey, Allemagne (10706): Ensoleillement: 15.07.2019 16:00:00 - 21.07.2019 16:00:00 (CEST)Tholey, Allemagne (10706): Quantités de précipitations: 15.07.2019 16:00:00 - 21.07.2019 16:00:00 (CEST)
Date & Time tt [°C] td [°C] tt 5cm [°C] tt -5cm [°C] tt -20cm [°C] tt -100cm [°C] ff [km/h] ff [knt] fx [km/h] fx [knt] dd ppp [hPa] vv [km] sd [min] rr [mm]
21.07.2019 16:00:00 24,8 10,8 29,1 31,8 24,0 18,4 19 10 32 17 WNW 1020,7 47 31 0,0
21.07.2019 15:00:00 23,8 10,7 25,5 34,0 23,4 18,4 17 9 41 22 W 1021,0 29 47 0,0
21.07.2019 14:00:00 24,4 11,6 28,0 33,0 22,9 18,4 14 8 36 20 WNW 1021,0 70 54 0,0
21.07.2019 13:00:00 23,5 12,4 27,1 28,4 22,5 18,4 18 10 30 16 W 1021,0 43 17 0,0
21.07.2019 12:00:00 23,0 12,7 26,4 29,5 22,1 18,4 16 9 34 18 WNW 1020,8 70 39 0,0
21.07.2019 11:00:00 21,3 12,8 24,5 28,6 21,7 18,4 23 12 36 19 W 1020,7 24 60 0,0
21.07.2019 10:00:00 20,5 12,6 23,5 25,7 21,6 18,4 18 10 27 14 W 1020,4 31 60 0,0
21.07.2019 09:00:00 19,7 12,8 21,9 22,4 21,6 18,4 13 7 21 11 W 1020,1 33 54 0,0
21.07.2019 08:00:00 18,5 14,6 19,2 19,6 21,8 18,4 7 4 16 9 WNW 1019,8 56 13 0,0
21.07.2019 07:00:00 17,0 14,4 16,8 18,7 22,1 18,4 8 5 16 9 W 1019,2 53 1 0,0
21.07.2019 06:00:00 16,6 14,4 15,4 18,5 22,4 18,3 9 5 12 7 WSW 1018,5 54 0 0,0
21.07.2019 05:00:00 18,1 14,5 17,0 19,0 22,7 18,3 9 5 11 6 W 1017,8 57 0 0,0
21.07.2019 04:00:00 17,9 14,5 14,4 19,4 23,1 18,3 6 3 10 5 W 1017,3 59 0 0,0
21.07.2019 03:00:00 19,0 14,6 17,3 20,4 23,4 18,3 8 4 20 11 WSW 1017,2 70 0 0,0
21.07.2019 02:00:00 20,0 14,3 18,3 21,0 23,7 18,3 9 5 23 12 W 1016,7 70 0 0,0
21.07.2019 01:00:00 21,2 14,5 19,7 21,7 24,1 18,3 13 7 27 14 WNW 1016,1 70 0 0,0
21.07.2019 00:00:00 22,1 14,3 20,8 22,5 24,4 18,3 13 7 23 13 W 1015,3 70 0 0,0
20.07.2019 23:00:00 23,0 13,7 21,4 23,6 24,7 18,3 12 7 25 14 W 1014,5 70 0 0,0
20.07.2019 22:00:00 24,4 12,6 23,0 25,1 24,9 18,3 16 8 35 19 W 1013,8 70 0 0,0
20.07.2019 21:00:00 25,6 12,5 24,9 26,7 25,0 18,3 18 10 33 18 W 1012,6 47 0 0,0
20.07.2019 20:00:00 26,5 13,1 26,1 28,3 25,0 18,3 22 12 37 20 W 1011,5 54 0 0,0
20.07.2019 19:00:00 27,6 12,9 27,8 29,9 24,8 18,3 24 13 45 25 W 1011,0 33 13 0,0
20.07.2019 18:00:00 28,1 12,1 28,9 31,5 24,5 18,3 25 14 54 29 W 1010,7 20 45 0,0
20.07.2019 17:00:00 28,9 11,7 30,8 33,6 24,1 18,3 29 16 51 28 W 1010,5 6 57 0,0
20.07.2019 16:00:00 29,2 11,7 31,5 32,7 23,6 18,3 33 18 46 25 WSW 1010,6 30 18 0,0
20.07.2019 15:00:00 28,5 12,1 30,6 34,5 22,9 18,3 23 12 45 24 SSW 1010,8 18 41 0,0
20.07.2019 14:00:00 28,0 12,9 32,3 35,1 22,2 18,3 22 12 41 22 SW 1011,2 6 58 0,0
20.07.2019 13:00:00 26,3 13,5 28,5 30,7 21,5 18,3 16 9 29 16 S 1011,5 61 28 0,0
20.07.2019 12:00:00 26,3 13,7 28,9 31,8 20,8 18,3 15 8 29 16 S 1011,7 51 57 0,0
20.07.2019 11:00:00 25,6 13,9 29,1 29,3 20,3 18,3 13 7 20 11 SSW 1011,8 28 55 0,0
20.07.2019 10:00:00 23,1 14,7 26,3 25,1 20,0 18,3 5 3 10 6 SE 1012,1 53 58 0,0
20.07.2019 09:00:00 20,5 14,0 22,3 21,7 19,9 18,3 7 4 11 6 E 1012,7 39 60 0,0
20.07.2019 08:00:00 19,2 13,9 20,0 18,7 20,0 18,3 6 4 11 6 E 1013,0 15 60 0,0
20.07.2019 07:00:00 18,0 13,8 17,5 16,7 20,2 18,3 8 4 16 8 ENE 1013,2 14 43 0,0
20.07.2019 06:00:00 17,0 13,6 15,3 16,4 20,5 18,3 13 7 17 9 NE 1013,3 62 0 0,0
20.07.2019 05:00:00 17,4 13,8 15,7 16,7 20,8 18,3 13 7 16 9 NE 1013,6 63 0 0,0
20.07.2019 04:00:00 17,3 13,8 15,1 16,9 21,0 18,3 10 5 14 7 NE 1013,8 70 0 0,0
20.07.2019 03:00:00 17,3 13,8 15,3 17,3 21,3 18,3 10 5 14 8 NE 1014,4 66 0 0,0
20.07.2019 02:00:00 17,5 13,9 15,4 17,7 21,6 18,3 9 5 11 6 NE 1014,6 70 0 0,0
20.07.2019 01:00:00 18,1 13,8 16,0 18,4 21,9 18,3 10 6 12 7 NE 1014,8 70 0 0,0
20.07.2019 00:00:00 18,5 14,3 16,5 19,1 22,2 18,3 8 4 10 5 ENE 1014,9 63 0 0,0
19.07.2019 23:00:00 19,2 14,0 16,4 20,0 22,5 18,3 6 4 8 5 ENE 1014,8 70 0 0,0
19.07.2019 22:00:00 20,4 13,8 16,5 21,0 22,7 18,3 3 1 10 5 NE 1014,5 70 0 0,0
19.07.2019 21:00:00 21,0 13,5 19,8 22,8 22,7 18,3 6 3 17 9 WNW 1014,3 70 10 0,0
19.07.2019 20:00:00 21,9 13,8 21,8 24,4 22,6 18,2 9 5 19 10 W 1014,2 70 4 0,0
19.07.2019 19:00:00 22,2 13,4 22,9 25,6 22,5 18,2 14 7 22 12 W 1014,3 70 19 0,0
19.07.2019 18:00:00 22,5 13,4 24,0 25,9 22,3 18,2 14 8 22 12 WSW 1014,4 58 12 0,0
19.07.2019 17:00:00 21,5 13,2 22,4 26,5 22,0 18,2 13 7 30 16 W 1014,9 70 17 0,0
19.07.2019 16:00:00 22,3 13,6 26,0 25,9 21,7 18,2 9 5 25 13 W 1015,0 53 8 0,0
19.07.2019 15:00:00 21,2 12,8 22,9 26,3 21,4 18,2 15 8 29 16 W 1015,2 47 23 0,0
19.07.2019 14:00:00 21,2 14,1 24,6 24,9 21,2 18,2 14 8 26 14 WSW 1015,2 52 17 0,0
19.07.2019 13:00:00 20,2 14,3 22,5 24,0 21,1 18,2 12 6 31 17 W 1015,5 56 12 0,0
19.07.2019 12:00:00 18,3 15,2 20,0 21,5 21,0 18,2 14 7 24 13 W 1016,1 31 3 0,0
19.07.2019 11:00:00 17,9 14,7 18,7 21,1 20,9 18,2 16 9 27 15 WSW 1015,9 47 7 0,0
19.07.2019 10:00:00 17,5 15,3 19,2 21,5 21,0 18,2 13 7 19 10 W 1015,7 30 26 0,0
19.07.2019 09:00:00 15,9 15,3 16,3 18,6 21,1 18,2 9 5 11 6 W 1015,6 11 0 0,0
19.07.2019 08:00:00 15,4 14,6 15,3 18,0 21,4 18,2 8 4 18 10 W 1015,3 16 0 0,0
19.07.2019 07:00:00 15,6 14,2 15,1 17,7 21,6 18,2 6 3 32 18 W 1014,8 32 0 0,5
19.07.2019 06:00:00 15,8 13,0 14,3 17,9 21,9 18,2 24 13 38 20 NW 1014,6 6 0 0,8
19.07.2019 05:00:00 16,6 14,0 15,4 18,8 22,2 18,1 4 2 5 3 W 1014,3 22 0 0,1
19.07.2019 04:00:00 18,1 12,1 15,5 19,0 22,5 18,1 3 1 6 3 N 1014,0 22 0 0,0
19.07.2019 03:00:00 15,9 12,7 15,0 19,4 22,8 18,1 5 3 9 5 E 1014,3 31 0 0,4
19.07.2019 02:00:00 19,3 11,0 17,0 20,1 23,1 18,1 3 1 4 2 WNW 1013,8 53 0 0,0
19.07.2019 01:00:00 18,9 11,0 16,6 20,5 23,4 18,1 0 0 4 2 N 1013,7 58 0 0,0
19.07.2019 00:00:00 19,2 11,2 17,4 21,3 23,7 18,1 2 1 8 4 SW 1013,6 57 0 0,0
18.07.2019 23:00:00 19,7 11,4 17,4 21,8 24,0 18,1 4 2 15 8 W 1013,4 63 0 0,0
18.07.2019 22:00:00 20,6 11,0 19,7 22,8 24,3 18,1 11 6 20 11 WNW 1013,0 64 0 0,0
18.07.2019 21:00:00 21,1 10,7 20,7 24,2 24,5 18,1 13 7 30 16 W 1012,5 64 0 0,0
18.07.2019 20:00:00 21,8 10,2 21,7 25,9 24,6 18,1 16 9 29 16 WNW 1012,2 67 0 0,0
18.07.2019 19:00:00 22,6 11,8 24,1 27,8 24,6 18,1 13 7 27 14 NW 1011,8 56 8 0,0
18.07.2019 18:00:00 23,4 11,0 25,3 28,6 24,6 18,1 13 7 39 21 NW 1011,4 35 0 0,0
18.07.2019 17:00:00 24,6 9,6 25,2 28,9 24,4 18,1 9 5 26 14 W 1010,9 55 0 0,0
18.07.2019 16:00:00 24,8 8,3 25,5 32,4 23,9 18,1 15 8 34 18 WNW 1011,0 36 28 0,0
18.07.2019 15:00:00 25,4 8,4 27,9 34,0 23,2 18,1 17 9 36 20 W 1011,0 35 48 0,0
18.07.2019 14:00:00 25,1 8,7 29,1 34,6 22,4 18,1 16 9 29 16 WSW 1011,4 20 55 0,0
18.07.2019 13:00:00 25,2 10,6 30,7 33,5 21,7 18,0 14 8 30 16 WSW 1011,7 29 60 0,0
18.07.2019 12:00:00 23,7 11,3 28,1 31,3 21,2 18,0 11 6 19 10 WSW 1012,0 32 57 0,0
18.07.2019 11:00:00 21,3 11,6 25,8 28,0 20,8 18,0 9 5 15 8 SW 1012,4 31 60 0,0
18.07.2019 10:00:00 19,4 11,6 22,7 23,2 20,7 18,0 5 3 9 5 S 1012,7 30 57 0,0
18.07.2019 09:00:00 17,1 11,2 18,6 20,4 20,8 18,0 4 2 10 5 E 1012,9 25 58 0,0
18.07.2019 08:00:00 14,6 11,7 15,3 17,4 21,0 18,0 3 2 4 2 ENE 1012,8 19 0 0,0
18.07.2019 07:00:00 14,1 10,9 13,3 16,6 21,4 18,0 2 1 13 7 N 1012,8 21 4 0,0
18.07.2019 06:00:00 15,1 11,2 13,4 16,5 21,8 18,0 11 6 16 9 NE 1012,6 28 0 0,0
18.07.2019 05:00:00 14,9 11,2 13,6 17,0 22,1 18,0 11 6 16 9 NE 1012,7 23 0 0,0
18.07.2019 04:00:00 15,1 10,7 13,7 17,7 22,6 18,0 9 5 19 10 NE 1013,1 24 0 0,0
18.07.2019 03:00:00 15,7 10,9 14,6 18,3 23,0 18,0 13 7 20 11 NE 1013,3 22 0 0,0
18.07.2019 02:00:00 16,1 10,9 15,3 19,0 23,5 18,0 15 8 22 12 NE 1013,0 30 0 0,0
18.07.2019 01:00:00 16,7 11,5 15,7 19,8 24,0 18,0 16 9 25 13 NE 1013,0 27 0 0,0
18.07.2019 00:00:00 17,3 11,4 16,2 20,7 24,4 18,0 18 10 26 14 NE 1012,9 25 0 0,0
17.07.2019 23:00:00 18,3 10,9 16,7 22,0 24,9 18,0 15 8 21 11 NNE 1012,8 21 0 0,0
17.07.2019 22:00:00 20,5 6,6 17,5 23,6 25,3 18,0 9 5 16 8 NNE 1012,4 70 0 0,0
17.07.2019 21:00:00 22,4 5,8 20,7 26,2 25,4 18,0 11 6 16 9 NW 1011,7 70 55 0,0
17.07.2019 20:00:00 23,6 6,9 24,0 28,5 25,4 18,0 10 5 18 10 WNW 1011,4 70 50 0,0
17.07.2019 19:00:00 25,1 6,3 26,7 31,8 25,1 18,0 11 6 23 12 W 1011,2 35 60 0,0
17.07.2019 18:00:00 25,1 5,8 27,9 34,4 24,6 18,0 9 5 19 10 W 1011,6 33 60 0,0
17.07.2019 17:00:00 25,2 6,5 28,9 35,9 23,9 18,0 9 5 19 11 W 1012,0 27 60 0,0
17.07.2019 16:00:00 24,5 6,5 29,6 36,3 23,1 18,0 10 6 21 11 WNW 1012,4 30 60 0,0
17.07.2019 15:00:00 23,9 8,9 28,9 36,2 22,2 18,0 10 5 20 11 W 1012,8 21 60 0,0
17.07.2019 14:00:00 23,1 9,0 29,0 34,9 21,4 18,0 6 4 21 11 SSE 1013,2 30 60 0,0
17.07.2019 13:00:00 21,5 9,3 26,8 33,3 20,6 18,0 11 6 16 9 WSW 1013,9 26 60 0,0
17.07.2019 12:00:00 21,1 11,0 26,6 30,6 19,9 18,0 9 5 15 8 SW 1014,1 19 60 0,0
17.07.2019 11:00:00 19,4 10,2 24,4 26,6 19,5 18,0 7 4 13 7 SSE 1014,6 19 60 0,0
17.07.2019 10:00:00 17,9 10,6 22,5 22,8 19,3 18,0 7 4 14 8 E 1014,9 24 60 0,0
17.07.2019 09:00:00 16,4 11,2 18,3 18,9 19,4 18,0 10 6 15 8 E 1015,0 16 60 0,0
17.07.2019 08:00:00 14,6 10,1 15,6 16,1 19,7 18,0 9 5 14 8 ENE 1015,3 9 59 0,0
17.07.2019 07:00:00 13,1 9,9 12,7 14,4 20,0 18,0 9 5 16 9 ENE 1015,6 9 33 0,0
17.07.2019 06:00:00 12,3 9,6 11,0 14,3 20,5 18,0 10 6 16 8 ENE 1016,0 10 0 0,0
17.07.2019 05:00:00 12,6 9,8 11,0 14,8 20,9 18,0 9 5 14 8 ENE 1016,0 10 0 0,0
17.07.2019 04:00:00 13,0 9,8 11,7 15,5 21,4 18,0 11 6 19 10 NE 1016,3 11 0 0,0
17.07.2019 03:00:00 13,6 9,9 12,2 16,3 21,8 18,0 14 8 21 11 NE 1016,5 13 0 0,0
17.07.2019 02:00:00 14,6 10,0 13,1 17,2 22,3 18,0 16 9 23 12 NE 1016,6 18 0 0,0
17.07.2019 01:00:00 15,5 10,3 14,0 18,3 22,8 18,0 15 8 20 11 NE 1016,3 26 0 0,0
17.07.2019 00:00:00 16,6 10,5 15,0 19,5 23,3 18,0 15 8 21 11 NE 1016,2 34 0 0,0
16.07.2019 23:00:00 17,5 10,8 16,0 21,0 23,7 18,0 14 8 23 12 NE 1016,1 34 0 0,0
16.07.2019 22:00:00 19,9 10,6 17,9 22,8 24,0 18,0 10 5 16 9 NNW 1015,6 35 0 0,0
16.07.2019 21:00:00 20,7 9,9 19,7 25,2 24,1 18,1 7 4 15 8 W 1015,4 50 18 0,0
16.07.2019 20:00:00 21,9 10,0 21,9 27,6 24,0 18,1 6 3 9 5 WSW 1015,2 51 43 0,0
16.07.2019 19:00:00 22,8 8,3 26,1 30,4 23,7 18,1 4 2 11 6 E 1015,2 46 60 0,0
16.07.2019 18:00:00 23,0 8,2 26,4 32,4 23,1 18,1 5 3 14 8 ESE 1015,4 50 60 0,0
16.07.2019 17:00:00 22,9 7,1 27,8 34,5 22,4 18,1 6 3 25 13 S 1015,8 33 60 0,0
16.07.2019 16:00:00 22,5 8,7 28,2 35,1 21,5 18,1 7 4 15 8 SW 1016,2 24 60 0,0
16.07.2019 15:00:00 21,0 7,3 27,5 34,5 20,5 18,1 8 4 17 9 E 1016,6 20 60 0,0
16.07.2019 14:00:00 20,8 8,7 26,7 33,3 19,6 18,1 8 5 17 9 SSE 1016,9 15 60 0,0
16.07.2019 13:00:00 19,6 8,6 26,7 31,0 18,8 18,1 9 5 16 9 SE 1017,5 16 60 0,0
16.07.2019 12:00:00 18,1 8,8 23,5 27,5 18,2 18,1 8 4 16 9 S 1018,0 20 59 0,0
16.07.2019 11:00:00 17,6 9,5 23,2 24,2 17,8 18,1 8 4 16 9 ENE 1018,3 17 57 0,0
16.07.2019 10:00:00 15,4 8,1 19,2 20,7 17,6 18,1 9 5 16 9 ENE 1018,8 17 60 0,0
16.07.2019 09:00:00 13,7 8,0 16,1 17,1 17,6 18,1 9 5 15 8 E 1019,0 10 60 0,0
16.07.2019 08:00:00 12,3 9,2 13,5 14,2 17,8 18,1 3 2 5 3 SE 1019,3 7 60 0,0
16.07.2019 07:00:00 11,6 8,4 9,7 12,0 18,2 18,1 0 0 5 3 N 1019,3 8 34 0,0
16.07.2019 06:00:00 9,8 7,8 6,9 11,7 18,6 18,1 5 3 11 6 N 1019,3 7 0 0,0
16.07.2019 05:00:00 10,5 8,0 8,4 12,2 19,0 18,2 10 5 14 8 NNE 1019,3 9 0 0,0
16.07.2019 04:00:00 10,1 8,1 8,0 12,7 19,4 18,2 8 4 16 8 NE 1019,6 9 0 0,0
16.07.2019 03:00:00 10,4 8,2 8,7 13,2 19,9 18,2 9 5 15 8 ENE 1019,8 10 0 0,0
16.07.2019 02:00:00 11,2 8,4 10,0 14,0 20,4 18,2 12 7 23 13 ENE 1019,6 14 0 0,0
16.07.2019 01:00:00 11,9 8,7 10,6 14,8 20,9 18,2 16 9 25 14 NE 1019,5 14 0 0,0
16.07.2019 00:00:00 11,8 9,0 10,5 15,8 21,4 18,2 11 6 23 12 NE 1019,5 13 0 0,0
15.07.2019 23:00:00 13,1 9,2 12,0 17,2 21,8 18,2 14 8 23 12 ENE 1019,0 14 0 0,0
15.07.2019 22:00:00 14,4 9,7 13,4 19,1 22,1 18,2 12 6 24 13 ENE 1018,6 11 0 0,0
15.07.2019 21:00:00 16,5 9,9 15,9 21,6 22,2 18,2 13 7 21 11 ENE 1017,6 15 58 0,0
15.07.2019 20:00:00 18,4 9,7 20,1 24,3 22,1 18,2 13 7 22 12 N 1017,4 27 60 0,0
15.07.2019 19:00:00 19,3 9,9 23,0 26,8 21,7 18,3 15 8 22 12 N 1017,1 27 54 0,0
15.07.2019 18:00:00 19,9 10,0 25,0 29,0 21,1 18,3 10 5 22 12 NE 1017,0 33 53 0,0
15.07.2019 17:00:00 20,1 9,3 25,4 30,8 20,4 18,3 11 6 23 12 ENE 1017,1 25 58 0,0
15.07.2019 16:00:00 19,8 8,7 27,9 29,6 19,7 18,3 9 5 20 11 NNE 1017,3 26 38 0,0

tt = Température de l'air
td = dewpoint
tt 5cm = Température de l'air 5cm
tt -5cm = Température de l'air -5cm
tt -20cm = Température de l'air -20cm
tt -100cm = Température de l'air -100cm
ff = Vitesse du vent
fx = gusts
dd = Direction du vent
ppp = reduced air pressure
vv = visibility
sd = Ensoleillement
rr = Quantités de précipitations

stations d'obs. à proximité